Flag for Germany Weather past 2 weeks in Troisdorf, North Rhine-Westphalia, Germany

Now
68 °F

Scattered clouds.


Feels Like: 68 °F
Forecast: 53 / 69 °F
Wind: 5 mph from Southwest

Location: Koeln / Bonn

Current Time: Sep 30, 2014 at 4:19:07 PM

Latest Report: Sep 30, 2014 at 3:50 PM


Visibility: N/A

Pressure: 30.27 "Hg

Humidity: 69%

Dew point: 57 °F

Location of TroisdorfLocation

Historic Weather in Troisdorf — Graph

°F

Troisdorf temperature yesterday

Maximum temperature yesterday: 73 °F (at 3:50 PM)
Minimum temperature yesterday: 54 °F (at 7:20 AM)
Average temperature yesterday: 62 °F

Past Weeks' High & Low Weather Summary

 TemperatureHumidityPressure
High77 °F (Sep 17, 3:50 PM)100% (Sep 16, 5:20 AM)30.39 "Hg (Sep 16, 5:20 AM)
Low43 °F (Sep 23, 4:20 AM)44% (Sep 17, 4:20 PM)29.83 "Hg (Sep 18, 3:50 PM)
Average60 °F82%30.07 "Hg
* Reported Sep 15 3:20 PM — Sep 30 3:20 PM, Troisdorf, Weather by CustomWeather, © 2014

Note: Actual official high and low records may vary slightly from our data, if they occured in-between our weather recording intervals... More about our weather records

Advertising

Troisdorf weather history for previous 24 hours

 ConditionsComfort  
Time TempWeatherWind HumidityBarometerVisibility
3:20 PM
Sep 30
68 °FScattered clouds.7 mph69%30.27 "HgN/A
2:50 PM68 °FScattered clouds.6 mph69%30.27 "HgN/A
2:20 PM68 °FScattered clouds.6 mph73%30.27 "HgN/A
1:50 PM66 °FScattered clouds.5 mph78%30.27 "HgN/A
1:20 PM66 °FScattered clouds.3 mph83%30.27 "HgN/A
12:50 PM66 °FBroken clouds.3 mph83%30.30 "HgN/A
12:20 PM63 °FBroken clouds.3 mph88%30.27 "HgN/A
11:50 AM63 °FBroken clouds.3 mph88%30.27 "HgN/A
11:20 AM61 °FPartly sunny.3 mph94%30.27 "HgN/A
10:50 AM61 °FPartly sunny.3 mph94%30.27 "HgN/A
10:20 AM59 °FPartly sunny.3 mph94%30.27 "HgN/A
9:50 AM59 °FOvercast.6 mph94%30.27 "HgN/A
9:20 AM59 °FPartly sunny.6 mph94%30.27 "HgN/A
8:50 AM59 °FPartly sunny.6 mph94%30.24 "HgN/A
8:20 AM59 °FLight rain. Passing clouds.2 mph94%30.24 "HgN/A
7:50 AM59 °FLight rain. Passing clouds.5 mph94%30.24 "HgN/A
7:20 AM57 °FLight rain. Partly cloudy.2 mph100%30.24 "HgN/A
6:50 AM57 °FPartly cloudy.6 mph100%30.24 "HgN/A
6:20 AM57 °FPartly cloudy.3 mph94%30.24 "HgN/A
5:50 AM57 °FPassing clouds.3 mph100%30.24 "HgN/A
5:20 AM57 °FFog.5 mph100%30.24 "HgN/A
4:50 AM59 °FFog.5 mph94%30.21 "HgN/A
4:20 AM59 °FFog.3 mph94%30.21 "HgN/A
3:50 AM59 °FFog.5 mph94%30.21 "HgN/A
3:20 AM59 °FClear.6 mph94%30.21 "Hg10 mi
2:50 AM59 °FClear.6 mph94%30.21 "Hg10 mi
2:20 AM59 °FClear.3 mph94%30.21 "Hg10 mi
1:50 AM59 °FClear.3 mph94%30.21 "Hg10 mi
1:20 AM59 °FClear.3 mph94%30.21 "Hg10 mi
12:50 AM59 °FPassing clouds.3 mph94%30.21 "HgN/A
12:20 AM59 °FPassing clouds.3 mph94%30.24 "HgN/A
11:50 PM
Sep 29
59 °FPassing clouds.3 mph94%30.24 "HgN/A
11:20 PM59 °FPassing clouds.3 mph94%30.21 "HgN/A
10:50 PM59 °FLight rain. Passing clouds.3 mph94%30.24 "HgN/A
10:20 PM59 °FPartly cloudy.2 mph94%30.24 "Hg4 mi
9:50 PM61 °FRain. Passing clouds.5 mph94%30.24 "Hg3 mi
9:20 PM61 °FRain. Passing clouds.2 mph94%30.24 "Hg4 mi
8:50 PM61 °FLight rain. Passing clouds.2 mph94%30.24 "HgN/A
8:20 PM61 °FLight rain. Mostly cloudy.2 mph88%30.24 "HgN/A
7:50 PM61 °FLight rain. Broken clouds.3 mph88%30.24 "HgN/A
7:20 PM61 °FLight rain. Broken clouds.8 mph88%30.21 "HgN/A
6:50 PM63 °FRain. Broken clouds.9 mph88%30.24 "HgN/A
6:20 PM66 °FLight rain. Broken clouds.5 mph78%30.21 "HgN/A
5:50 PM68 °FLight rain. More clouds than sun.6 mph69%30.21 "HgN/A
5:20 PM70 °FBroken clouds.7 mph64%30.21 "HgN/A
4:50 PM72 °FPartly sunny.8 mph57%30.21 "HgN/A
4:20 PM72 °FPartly sunny.8 mph61%30.21 "HgN/A
Weather by CustomWeather, © 2014

See weather overviewHow to use our weather pages